Flag for U.S.A. Weather past 2 weeks in Tallahassee, Florida, U.S.A.

Now
75 °F

Clear.


Feels Like: 73 °F
Forecast: 74 / 87 °F
Wind: 5 mph from Southwest

Location: Tallahassee Regional Airport

Current Time: Jun 30, 2015 at 2:27:40 AM

Latest Report: Jun 30, 2015 at 1:53 AM


Visibility: 10 mi

Pressure: 30.04 "Hg

Humidity: 94%

Dew point: 73 °F

Location of TallahasseeLocation

Historic Weather in Tallahassee — Graph

°F

Tallahassee temperature yesterday

Maximum temperature yesterday: 87 °F (at 3:53 PM)
Minimum temperature yesterday: 74 °F (at 3:01 AM)
Average temperature yesterday: 80 °F

Past Weeks' High & Low Weather Summary

 TemperatureHumidityPressure
High98 °F (Jun 21, 2:53 PM)97% (Jun 18, 2:53 AM)30.15 "Hg (Jun 18, 2:53 AM)
Low72 °F (Jun 16, 4:53 AM)40% (Jun 16, 3:53 PM)29.92 "Hg (Jun 28, 4:53 AM)
Average82 °F75%30.06 "Hg
* Reported Jun 15 12:53 AM — Jun 30 12:53 AM, Tallahassee, Weather by CustomWeather, © 2015

Note: Actual official high and low records may vary slightly from our data, if they occured in-between our weather recording intervals... More about our weather records

Advertising

Tallahassee weather history for previous 24 hours

 ConditionsComfort  
Time TempWeatherWind HumidityBarometerVisibility
12:53 AM
Tue, Jun 30
76 °FClear.3 mph91%30.04 "Hg10 mi
11:53 PM
Mon, Jun 29
78 °FClear.No wind84%30.03 "Hg10 mi
10:53 PM78 °FPassing clouds.5 mph84%30.03 "Hg10 mi
9:53 PM80 °FPassing clouds.5 mph79%30.01 "Hg10 mi
8:53 PM83 °FScattered clouds.5 mph72%30.00 "Hg10 mi
7:53 PM86 °FPartly sunny.7 mph61%30.00 "Hg10 mi
6:53 PM86 °FBroken clouds.6 mph65%30.00 "Hg10 mi
5:53 PM87 °FBroken clouds.9 mph63%29.98 "Hg10 mi
4:53 PM85 °FBroken clouds.12 mph65%29.99 "Hg10 mi
3:53 PM87 °FBroken clouds.No wind57%30.00 "Hg10 mi
2:53 PM86 °FCloudy.6 mph59%30.02 "Hg10 mi
1:53 PM86 °FCloudy.5 mph63%30.03 "Hg10 mi
12:53 PM85 °FCloudy.6 mph68%30.06 "Hg10 mi
11:53 AM82 °FMore clouds than sun.3 mph77%30.06 "Hg10 mi
10:53 AM79 °FLow clouds.No wind84%30.05 "Hg10 mi
9:53 AM78 °FPartly sunny.No wind87%30.05 "Hg10 mi
8:53 AM77 °FLow clouds.5 mph90%30.03 "Hg10 mi
7:53 AM75 °FFog.5 mph96%30.01 "Hg4 mi
7:01 AM75 °FFog.5 mph96%29.99 "Hg1 mi
5:53 AM75 °FFog.5 mph96%29.98 "Hg4 mi
4:53 AM76 °FLow clouds.5 mph94%29.98 "Hg10 mi
3:53 AM76 °FPassing clouds.No wind94%29.96 "Hg10 mi
3:01 AM74 °FFog.No wind97%29.98 "Hg3 mi
Weather by CustomWeather, © 2015

See weather overviewHow to use our weather pages